Location: Leyland
(53.0333°N, 117.3167°W)
Time: 06:38:23
(UTC+00:00)

Envisat - Visible Passes

Search period start: 13 April 2024 00:00
Search period end: 23 April 2024 00:00
Orbit: 762 x 764 km, 98.3° (Epoch: 12 April)

Date Brightness Start Highest point End Pass type
(mag) Time Alt. Az. Time Alt. Az. Time Alt. Az.
13 Apr 5.3 10:03:16 10° NE 10:06:54 19° E 10:10:29 10° SE visible
13 Apr 3.0 11:41:21 10° NNE 11:46:28 77° WNW 11:51:31 10° SSW visible
14 Apr 3.6 11:04:04 10° NNE 11:09:05 56° E 11:14:04 10° S visible
15 Apr 4.7 10:27:05 10° NNE 10:31:31 29° E 10:35:54 10° SSE visible
15 Apr 3.3 12:05:49 10° N 12:10:44 50° WNW 12:15:37 10° SW visible
16 Apr 5.5 09:50:47 10° NE 09:53:44 15° E 09:56:40 10° ESE visible
16 Apr 3.0 11:28:21 10° NNE 11:33:28 86° ESE 11:38:33 10° SSW visible
17 Apr 4.0 10:51:09 10° NNE 10:56:03 45° E 11:00:53 10° S visible
18 Apr 5.0 10:14:20 10° NE 10:18:24 24° E 10:22:26 10° SE visible
18 Apr 3.1 11:52:46 10° N 11:57:48 63° WNW 12:02:47 10° SSW visible
19 Apr 5.6 09:38:36 10° ENE 09:40:32 12° E 09:42:27 10° ESE visible
19 Apr 3.3 11:15:23 10° NNE 11:20:29 70° ESE 11:25:32 10° S visible
20 Apr 4.4 10:38:17 10° NNE 10:42:58 36° E 10:47:37 10° SSE visible
21 Apr 5.3 10:01:40 10° NE 10:05:16 19° E 10:08:48 10° SE visible
21 Apr 3.0 11:39:44 10° NNE 11:44:50 78° WNW 11:49:54 10° SSW visible
22 Apr 3.6 11:02:26 10° NNE 11:07:27 55° E 11:12:25 10° S visible
